Location: Nemiskam
(49.4820°N, 111.2775°W)
Time: 08:26:07
(UTC+00:00)

Envisat - Pass Details

Date: 06 December 2022
Orbit: 763 x 765 km, 98.2° (Epoch: 28 January)

Event Time Altitude Azimuth Distance (km) Brightness Sun altitude
Rises 12:27:15 0° 9° (N) 3,246 6.3 -24.7°
Reaches altitude 10° 12:29:38 10° 4° (N) 2,315 5.4 -24.3°
Enters shadow 12:31:53 25° 351° (N) 1,518 4.3 -24.0°
